Date,TemperatureHighF,TemperatureAvgF,TemperatureLowF,DewpointHighF,DewpointAvgF,DewpointLowF,HumidityHigh,HumidityAvg,HumidityLow,PressureMaxIn,PressureMinIn,WindSpeedMaxMPH,WindSpeedAvgMPH,GustSpeedMaxMPH,PrecipitationSumIn
2014-1-1,7.0,1.9,-5.0,-2.0,-8.0,-15.0,65,62,58,0.00,40.00,16,11,24,0.00
2014-1-2,9.0,4.4,-6.0,0.0,-4.3,-14.0,77,66,56,0.00,40.00,16,10,26,0.00
2014-1-3,17.0,2.6,-15.0,11.0,-5.4,-22.0,76,69,55,0.00,40.00,21,11,33,0.00
2014-1-4,32.0,22.7,14.0,28.0,14.3,-99.9,87,72,66,0.00,40.00,17,11,27,0.00
2014-1-5,14.0,4.8,-8.0,5.0,-7.0,-20.0,68,58,46,0.00,40.00,15,12,25,0.00
2014-1-6,-8.0,-14.8,-19.0,-20.0,-26.7,-32.0,61,54,45,0.00,40.00,16,3,26,0.00
2014-1-7,1.0,-9.6,-20.0,-14.0,-20.0,-28.0,67,59,49,0.00,40.00,14,3,22,0.00
2014-1-8,7.0,-3.2,-14.0,-8.0,-12.7,-21.0,74,64,48,0.00,40.00,9,3,15,0.00
2014-1-9,22.0,-0.8,-17.0,20.0,-7.3,-25.0,90,73,56,0.00,40.00,14,3,23,0.00
2014-1-10,36.0,29.4,22.0,36.0,28.8,20.0,100,97,90,0.00,40.00,13,9,19,0.28
2014-1-11,35.0,31.3,29.0,35.0,28.8,-99.9,100,93,85,0.00,40.00,16,10,24,0.14
2014-1-12,39.0,32.2,25.0,33.0,27.6,24.0,99,84,65,0.00,40.00,19,11,35,0.00
2014-1-13,40.0,33.1,22.0,34.0,29.3,18.0,96,86,71,0.00,40.00,15,6,30,0.00
2014-1-14,33.0,26.0,16.0,33.0,23.7,15.0,100,91,71,0.00,40.00,18,11,45,0.02
2014-1-15,16.0,11.6,6.0,15.0,8.1,2.0,94,85,79,0.00,40.00,20,10,38,0.01
2014-1-16,31.0,23.2,12.0,31.0,19.7,6.0,100,86,74,0.00,40.00,20,12,52,0.01
2014-1-17,21.0,14.6,9.0,16.0,9.5,3.0,86,79,73,0.00,40.00,14,9,24,0.01
2014-1-18,18.0,10.6,4.0,12.0,4.2,-99.9,89,78,69,0.00,40.00,8,4,12,0.00
2014-1-19,33.0,21.6,4.0,25.0,16.1,1.0,89,80,66,0.00,40.00,13,8,20,0.00
2014-1-20,29.0,14.5,4.0,25.0,8.0,-9.0,96,76,54,0.00,40.00,19,10,28,0.00
2014-1-21,4.0,-1.9,-10.0,-9.0,-11.9,-17.0,72,62,50,0.00,40.00,14,6,25,0.00
2014-1-22,9.0,2.3,-4.0,2.0,-6.2,-14.0,77,67,51,0.00,40.00,15,9,24,0.00
2014-1-23,7.0,-1.0,-9.0,-7.0,-11.4,-18.0,67,61,51,0.00,40.00,16,11,25,0.00
2014-1-24,27.0,8.5,-11.0,26.0,-0.2,-19.0,97,68,57,0.00,40.00,17,12,32,0.00
2014-1-25,28.0,12.0,-2.0,28.0,-1.2,-99.9,98,58,40,0.00,40.00,21,12,33,0.00
2014-1-26,19.0,9.4,2.0,13.0,2.7,-8.0,83,74,58,0.00,40.00,22,10,38,0.01
2014-1-27,4.0,-6.1,-14.0,-2.0,-18.5,-24.0,77,54,42,0.00,40.00,19,13,31,0.01
2014-1-28,2.0,-8.8,-20.0,-13.0,-19.7,-28.0,67,58,47,0.00,40.00,15,6,29,0.00
2014-1-29,19.0,5.5,-7.0,7.0,-6.5,-16.0,68,58,43,0.00,40.00,17,7,44,0.00
2014-1-30,29.0,23.3,12.0,27.0,15.7,6.0,94,74,55,0.00,40.00,19,13,56,0.03
2014-1-31,12.0,4.4,-2.0,6.0,-4.2,-9.0,78,67,53,0.00,40.00,10,4,15,0.03
2014-2-1,16.0,9.1,-4.0,10.0,2.6,-99.9,87,77,68,0.00,40.00,9,3,14,0.03
2014-2-2,15.0,7.0,-4.0,4.0,-0.8,-9.0,87,71,49,0.00,40.00,9,4,20,0.01
2014-2-3,19.0,5.1,-11.0,2.0,-5.1,-17.0,78,63,45,0.00,40.00,10,5,16,0.00
2014-2-4,17.0,10.8,1.0,9.0,2.9,-4.0,79,70,63,0.00,40.00,11,5,17,0.00
2014-2-5,16.0,12.9,4.0,11.0,5.2,-3.0,84,71,62,0.00,40.00,17,11,32,0.00
2014-2-6,7.0,-1.1,-7.0,-3.0,-9.9,-15.0,77,66,49,0.00,40.00,15,8,21,0.00
2014-2-7,13.0,0.8,-9.0,-5.0,-9.2,-15.0,76,63,44,0.00,40.00,17,8,25,0.00
2014-2-8,16.0,6.2,-4.0,9.0,0.2,-9.0,88,76,60,0.00,40.00,7,4,11,0.00
2014-2-9,18.0,8.7,-2.0,7.0,1.3,-11.0,88,72,54,0.00,40.00,13,5,43,0.00
2014-2-10,8.0,-0.8,-8.0,-9.0,-12.0,-16.0,71,59,45,0.00,40.00,11,5,20,0.00
2014-2-11,14.0,-0.2,-13.0,-6.0,-11.6,-19.0,75,59,39,0.00,40.00,10,4,14,0.00
2014-2-12,17.0,8.3,-2.0,11.0,1.7,-10.0,91,74,62,0.00,40.00,10,6,15,0.01
2014-2-13,26.0,20.1,1.0,22.0,14.0,-4.0,89,77,51,0.00,40.00,16,10,36,0.01
2014-2-14,23.0,14.2,5.0,9.0,4.9,-4.0,85,67,52,0.00,40.00,13,8,27,0.00
2014-2-15,19.0,12.5,1.0,13.0,1.5,-99.9,93,64,51,0.00,40.00,9,5,17,0.00
2014-2-16,18.0,13.5,5.0,13.0,7.6,0.0,92,77,61,0.00,40.00,12,5,33,0.01
2014-2-17,24.0,19.9,8.0,23.0,17.1,3.0,97,89,74,0.00,40.00,20,8,36,0.07
2014-2-18,44.0,28.9,13.0,29.0,23.0,11.0,96,80,51,0.00,40.00,15,7,24,0.01
2014-2-19,44.0,34.4,25.0,30.0,24.2,21.0,92,68,47,0.00,40.00,10,5,29,0.00
2014-2-20,38.0,34.8,31.0,38.0,31.6,22.0,100,89,58,0.00,40.00,23,12,70,0.27
2014-2-21,35.0,24.2,18.0,33.0,16.3,9.0,92,72,56,0.00,40.00,26,22,68,0.18
2014-2-22,28.0,19.4,10.0,11.0,6.4,-99.9,73,59,45,0.00,40.00,20,12,48,0.00
2014-2-23,24.0,13.4,4.0,5.0,1.9,-2.0,75,61,43,0.00,40.00,19,11,30,0.00
2014-2-24,21.0,12.1,5.0,5.0,1.6,-2.0,77,63,46,0.00,40.00,18,10,31,0.00
2014-2-25,13.0,8.5,0.0,2.0,-3.3,-10.0,77,59,41,0.00,40.00,17,11,27,0.00
2014-2-26,11.0,2.3,-8.0,6.0,-10.1,-16.0,78,56,39,0.00,40.00,22,13,35,0.00
2014-2-27,11.0,0.8,-8.0,6.0,-15.5,-21.0,78,46,30,0.00,40.00,17,10,32,0.00
2014-2-28,20.0,8.2,-9.0,16.0,-5.4,-21.0,92,54,41,0.00,40.00,16,7,24,0.01
2014-3-1,17.0,10.3,4.0,15.0,1.0,-99.9,92,68,50,0.00,40.00,15,10,23,0.02
2014-3-2,7.0,1.4,-6.0,-8.0,-16.3,-23.0,59,43,28,0.00,40.00,14,9,23,0.00
2014-3-3,14.0,3.3,-11.0,-2.0,-12.1,-23.0,55,48,37,0.00,40.00,11,5,17,0.00
2014-3-4,20.0,13.9,9.0,8.0,6.3,-2.0,86,72,54,0.00,40.00,8,5,12,0.06
2014-3-5,20.0,13.9,2.0,8.0,4.3,-4.0,81,66,52,0.00,40.00,12,8,19,0.01
2014-3-6,31.0,17.5,-4.0,12.0,7.0,-9.0,89,65,40,0.00,40.00,11,6,39,0.00
2014-3-7,43.0,30.3,15.0,29.0,21.2,11.0,84,70,47,0.00,40.00,12,8,40,0.00
2014-3-8,33.0,25.8,18.0,29.0,16.5,-99.9,85,70,54,0.00,40.00,16,7,37,0.00
2014-3-9,37.0,26.6,14.0,30.0,18.9,10.0,90,73,49,0.00,40.00,17,8,45,0.00
2014-3-10,54.0,43.0,33.0,35.0,33.3,30.0,96,71,48,0.00,40.00,9,5,32,0.00
2014-3-11,42.0,38.5,34.0,39.0,33.5,27.0,99,82,68,0.00,40.00,15,4,23,0.05
2014-3-12,34.0,22.7,13.0,27.0,12.5,3.0,79,65,45,0.00,40.00,18,12,29,0.01
2014-3-13,37.0,23.8,11.0,31.0,15.8,2.0,96,72,61,0.00,40.00,16,9,24,0.00
2014-3-14,49.0,39.7,32.0,34.0,31.6,28.0,98,74,49,0.00,40.00,21,11,30,0.00
2014-3-15,37.0,31.0,22.0,28.0,18.3,-99.9,76,63,43,0.00,40.00,16,8,24,0.00
2014-3-16,23.0,16.2,9.0,13.0,3.3,-99.9,70,59,44,0.00,40.00,17,10,27,0.00
2014-3-17,33.0,22.5,12.0,20.0,10.5,5.0,84,62,36,0.00,40.00,16,8,40,0.00
2014-3-18,46.0,36.3,27.0,31.0,28.0,23.0,92,73,55,0.00,40.00,14,11,23,0.00
2014-3-19,38.0,34.5,33.0,34.0,31.6,25.0,100,90,73,0.00,40.00,17,10,34,0.00
2014-3-20,43.0,35.1,30.0,27.0,23.0,19.0,84,63,40,0.00,40.00,13,7,40,0.00
2014-3-21,46.0,34.9,26.0,34.0,27.2,22.0,93,75,52,0.00,40.00,18,8,27,0.00
2014-3-22,36.0,31.0,20.0,34.0,18.7,-99.9,93,63,40,0.00,40.00,17,12,28,0.00
2014-3-23,28.0,19.8,13.0,8.0,4.3,2.0,67,51,35,0.00,40.00,13,9,24,0.00
2014-3-24,34.0,30.8,24.0,22.0,13.9,8.0,85,51,36,0.00,40.00,17,12,53,0.00
2014-3-25,24.0,19.5,12.0,19.0,6.1,0.0,84,57,34,0.00,40.00,17,11,28,0.00
2014-3-26,36.0,23.6,11.0,20.0,9.9,3.0,78,57,37,0.00,40.00,16,8,36,0.00
2014-3-27,43.0,37.8,34.0,42.0,32.4,20.0,100,83,50,0.00,40.00,22,13,46,0.32
2014-3-28,42.0,35.3,31.0,40.0,30.4,27.0,100,83,60,0.00,40.00,18,9,46,0.30
2014-3-29,44.0,32.9,26.0,27.0,23.3,-99.9,94,73,47,0.00,40.00,8,5,18,0.01
2014-3-30,55.0,39.6,24.0,36.0,27.3,20.0,87,63,44,0.00,40.00,16,8,28,0.00
2014-3-31,66.0,52.3,41.0,38.0,33.4,26.0,72,52,22,0.00,40.00,23,13,53,0.00
2014-4-1,54.0,38.1,28.0,39.0,26.4,20.0,81,64,48,0.00,40.00,22,12,61,0.00
2014-4-2,48.0,34.6,23.0,30.0,23.4,19.0,92,66,43,0.00,40.00,10,4,42,0.00
2014-4-3,38.0,36.0,33.0,29.0,22.5,18.0,77,58,47,0.00,40.00,15,2,54,0.00
2014-4-4,35.0,33.4,30.0,34.0,30.6,25.0,99,89,73,0.00,40.00,18,4,73,0.07
2014-4-5,52.0,38.6,25.0,29.0,23.9,-99.9,96,62,31,0.00,40.00,13,6,34,0.02
2014-4-6,60.0,45.1,32.0,34.0,30.5,26.0,81,59,36,0.00,40.00,15,8,25,0.00
2014-4-7,61.0,49.5,41.0,44.0,35.3,31.0,93,59,38,0.00,40.00,10,5,16,0.00
2014-4-8,56.0,46.6,36.0,44.0,37.3,31.0,97,73,39,0.00,40.00,22,8,45,0.02
2014-4-9,62.0,47.1,33.0,34.0,30.3,26.0,92,58,25,0.00,40.00,16,7,44,0.01
2014-4-10,63.0,53.9,42.0,38.0,28.6,17.0,56,40,18,0.00,40.00,18,10,57,0.00
2014-4-11,64.0,50.2,37.0,37.0,28.1,20.0,66,44,21,0.00,40.00,18,8,68,0.00
2014-4-12,49.0,44.8,40.0,49.0,35.9,-99.9,100,75,50,0.00,40.00,23,12,64,1.24
2014-4-13,53.0,45.1,40.0,53.0,44.5,39.0,100,98,94,0.00,40.00,23,8,33,2.88
2014-4-14,40.0,33.8,31.0,39.0,31.1,24.0,99,90,73,0.00,40.00,29,17,41,2.10
2014-4-15,33.0,27.0,19.0,20.0,15.1,11.0,88,62,43,0.00,40.00,13,7,24,0.02
2014-4-16,48.0,37.5,26.0,29.0,23.8,18.0,76,59,42,0.00,40.00,22,13,68,0.00
2014-4-17,55.0,44.4,35.0,40.0,32.8,27.0,91,64,54,0.00,40.00,19,11,44,0.00
2014-4-18,54.0,37.4,30.0,33.0,30.1,26.0,98,78,42,0.00,40.00,10,4,18,0.00
2014-4-19,60.0,45.3,33.0,39.0,29.6,-99.9,79,57,35,0.00,40.00,18,13,41,0.00
2014-4-20,71.0,58.8,50.0,53.0,42.4,36.0,70,56,37,0.00,40.00,14,8,196,0.00
2014-4-21,69.0,60.9,53.0,60.0,51.9,40.0,91,73,52,0.00,40.00,14,5,45,0.01
2014-4-22,55.0,47.0,37.0,40.0,30.0,26.0,72,53,32,0.00,40.00,17,13,45,0.01
2014-4-23,54.0,43.1,32.0,29.0,25.3,13.0,80,53,31,0.00,40.00,11,6,17,0.00
2014-4-24,48.0,42.6,35.0,38.0,31.8,13.0,89,67,32,0.00,40.00,22,13,40,0.33
2014-4-25,65.0,51.9,43.0,44.0,39.8,35.0,97,67,34,0.00,40.00,20,9,30,0.09
2014-4-26,48.0,42.0,34.0,39.0,32.3,30.0,86,69,55,0.00,40.00,21,10,38,0.01
2014-4-28,46.0,43.9,43.0,40.0,38.8,37.0,90,82,70,0.00,40.00,20,18,34,0.09
2014-4-29,49.0,44.5,40.0,47.0,42.8,39.0,97,93,86,0.00,40.00,16,9,41,0.56
2014-4-30,55.0,48.0,43.0,47.0,43.3,36.0,96,84,69,0.00,40.00,14,9,41,0.02
2014-5-1,50.0,44.7,40.0,45.0,40.3,37.0,96,85,74,0.00,40.00,13,8,34,0.01
2014-5-2,51.0,46.7,44.0,45.0,42.2,39.0,97,85,64,0.00,40.00,13,9,34,0.06
2014-5-3,62.0,51.5,44.0,45.0,38.1,-99.9,100,67,33,0.00,40.00,19,10,48,0.07
2014-5-4,60.0,50.4,42.0,39.0,30.2,24.0,72,49,25,0.00,40.00,17,9,56,0.00
2014-5-5,57.0,47.3,42.0,37.0,34.3,31.0,76,61,45,0.00,40.00,26,10,62,0.00
2014-5-6,60.0,49.6,40.0,39.0,34.0,29.0,77,56,43,0.00,40.00,19,11,54,0.00
2014-5-7,51.0,51.0,51.0,35.0,35.0,35.0,55,55,55,0.00,40.00,12,12,34,0.00
2014-5-13,57.0,53.5,50.0,45.0,42.2,40.0,70,66,64,0.00,40.00,12,10,34,0.26
2014-5-14,57.0,50.8,43.0,43.0,39.1,36.0,85,65,46,0.00,40.00,12,6,31,0.01
2014-5-15,51.0,45.1,39.0,43.0,35.9,33.0,93,71,51,0.00,40.00,17,11,39,0.09
2014-5-16,50.0,44.5,38.0,36.0,30.9,27.0,92,61,43,0.00,40.00,10,6,130,0.01
2014-5-17,61.0,50.3,37.0,38.0,31.1,-99.9,88,52,28,0.00,40.00,19,7,53,0.00
2014-5-18,73.0,58.5,44.0,43.0,38.0,34.0,73,49,26,0.00,40.00,13,7,23,0.00
2014-5-19,66.0,54.6,49.0,49.0,38.7,-99.9,75,60,41,0.00,40.00,21,10,43,0.05
2014-5-20,85.0,66.7,53.0,64.0,55.0,-99.9,83,69,49,0.00,40.00,16,8,35,0.01
2014-5-21,83.0,69.9,56.0,63.0,54.1,39.0,99,63,22,0.00,40.00,18,8,29,0.00
2014-5-22,70.0,59.3,50.0,49.0,45.0,-99.9,87,63,40,0.00,40.00,18,7,38,0.00
2014-5-23,69.0,58.9,48.0,50.0,45.3,39.0,93,63,37,0.00,40.00,13,5,37,0.00
2014-5-24,78.0,62.6,48.0,46.0,42.0,-99.9,84,52,28,0.00,40.00,9,3,15,0.00
2014-5-25,83.0,68.0,52.0,53.0,47.9,41.0,80,52,30,0.00,40.00,8,4,23,0.00
2014-5-26,85.0,71.5,65.0,68.0,61.4,50.0,94,72,53,0.00,40.00,15,6,39,0.19
2014-5-27,77.0,68.8,62.0,69.0,65.1,55.0,99,88,74,0.00,40.00,11,4,133,0.41
2014-5-28,72.0,62.2,56.0,55.0,49.5,42.0,84,64,51,0.00,40.00,18,8,41,0.26
2014-5-29,79.0,65.7,52.0,61.0,54.1,47.0,86,67,49,0.00,40.00,8,4,17,0.00
2014-5-30,82.0,68.3,54.0,58.0,52.1,47.0,90,60,31,0.00,40.00,13,6,30,0.00
2014-5-31,86.0,72.3,61.0,57.0,50.7,-99.9,68,50,34,0.00,40.00,15,8,27,0.00
2014-6-1,87.0,74.2,66.0,71.0,59.3,52.0,77,60,51,0.00,40.00,15,10,39,0.01
2014-6-2,79.0,74.0,65.0,67.0,64.9,63.0,98,74,59,0.00,40.00,18,13,47,2.48
2014-6-3,75.0,68.1,61.0,65.0,54.9,50.0,83,64,47,0.00,40.00,31,14,54,0.01
2014-6-4,76.0,65.7,60.0,61.0,57.3,54.0,86,75,56,0.00,40.00,9,4,21,0.03
2014-6-5,78.0,65.9,53.0,55.0,50.3,45.0,95,61,36,0.00,40.00,7,2,18,0.03
2014-6-6,81.0,70.3,60.0,58.0,53.8,50.0,77,57,39,0.00,40.00,8,4,69,0.00
2014-6-7,83.0,68.7,60.0,63.0,52.1,-99.9,92,59,41,0.00,40.00,17,4,26,0.14
2014-6-8,72.0,64.4,56.0,62.0,51.4,41.0,96,67,40,0.00,40.00,20,11,51,0.20
2014-6-9,76.0,63.0,49.0,59.0,49.3,38.0,83,61,52,0.00,40.00,9,2,41,0.01
2014-6-10,69.0,63.7,57.0,54.0,49.9,44.0,70,61,55,0.00,40.00,8,2,18,0.00
2014-6-11,66.0,61.7,59.0,61.0,56.3,51.0,93,83,66,0.00,40.00,13,0,35,0.03
2014-6-12,75.0,65.8,57.0,63.0,56.4,47.0,99,74,50,0.00,40.00,17,5,45,0.02
2014-6-13,73.0,61.8,53.0,49.0,42.3,36.0,71,51,29,0.00,40.00,8,1,16,0.01
2014-6-14,78.0,62.7,50.0,52.0,44.1,-99.9,77,55,38,0.00,40.00,9,1,25,0.00
2014-6-15,82.0,69.6,58.0,65.0,54.9,43.0,77,60,52,0.00,40.00,18,4,71,0.01
2014-6-16,86.0,74.2,62.0,64.0,61.2,59.0,94,66,41,0.00,40.00,11,5,31,0.01
2014-6-17,84.0,74.0,66.0,69.0,66.4,64.0,97,78,57,0.00,40.00,14,4,130,1.27
2014-6-18,76.0,69.6,64.0,67.0,65.0,62.0,98,86,72,0.00,40.00,3,0,27,1.70
2014-6-19,75.0,66.5,62.0,66.0,62.9,60.0,98,89,74,0.00,40.00,5,0,15,0.37
2014-6-20,79.0,68.5,61.0,71.0,65.1,59.0,99,90,73,0.00,40.00,4,1,69,2.04
2014-6-21,77.0,64.4,59.0,70.0,61.0,-99.9,100,92,80,0.00,40.00,1,0,14,0.04
2014-6-22,80.0,69.8,65.0,69.0,65.6,63.0,100,88,68,0.00,40.00,3,0,63,0.01
2014-6-23,83.0,70.1,63.0,71.0,65.6,62.0,99,87,63,0.00,40.00,4,1,11,1.02
2014-6-24,84.0,73.2,64.0,69.0,65.9,62.0,99,80,49,0.00,40.00,17,3,34,0.68
2014-6-25,71.0,66.0,61.0,64.0,62.3,58.0,97,88,74,0.00,40.00,3,0,10,0.00
2014-6-26,79.0,66.5,56.0,64.0,59.6,55.0,98,80,59,0.00,40.00,7,2,57,0.00
2014-6-27,85.0,72.6,60.0,70.0,63.7,57.0,93,75,57,0.00,40.00,4,0,38,0.00
2014-6-28,83.0,75.4,70.0,73.0,65.8,-99.9,86,75,67,0.00,40.00,5,0,39,0.00
2014-6-29,82.0,75.3,67.0,71.0,68.7,65.0,97,80,66,0.00,40.00,0,0,173,0.28
2014-6-30,84.0,73.2,66.0,75.0,68.5,64.0,97,86,74,0.00,40.00,19,1,39,1.52
2014-7-1,77.0,69.7,64.0,65.0,62.9,60.0,95,80,63,0.00,40.00,1,0,152,1.02
2014-7-2,67.0,61.9,59.0,61.0,58.3,56.0,97,88,80,0.00,40.00,6,2,53,0.08
2014-7-3,76.0,63.3,51.0,57.0,52.7,49.0,99,73,42,0.00,40.00,8,4,126,0.01
2014-7-4,78.0,67.2,54.0,58.0,53.6,51.0,98,66,39,0.00,40.00,12,5,82,0.00
2014-7-5,78.0,67.5,58.0,62.0,53.8,-99.9,79,65,56,0.00,40.00,18,9,94,0.00
2014-7-6,78.0,71.3,65.0,73.0,66.2,59.0,91,84,76,0.00,40.00,16,8,94,0.00
2014-7-7,83.0,75.1,69.0,72.0,66.2,59.0,98,76,50,0.00,40.00,15,6,123,0.02
2014-7-8,76.0,68.8,63.0,64.0,61.1,57.0,97,78,51,0.00,40.00,8,2,51,0.61
2014-7-9,73.0,65.1,58.0,59.0,55.7,51.0,97,74,48,0.00,40.00,15,5,48,0.03
2014-7-10,79.0,67.6,54.0,61.0,55.9,52.0,93,68,47,0.00,40.00,11,4,167,0.00
2014-7-11,77.0,68.8,61.0,62.0,57.0,53.0,77,67,54,0.00,40.00,10,3,156,0.00
2014-7-12,80.0,69.8,66.0,72.0,64.1,58.0,98,81,73,0.00,40.00,8,1,140,1.36
2014-7-13,79.0,69.9,60.0,67.0,61.0,50.0,99,77,43,0.00,40.00,10,1,19,1.41
2014-7-14,74.0,64.3,56.0,61.0,53.7,50.0,91,71,48,0.00,40.00,0,0,0,0.00
2014-7-15,66.0,58.2,53.0,56.0,52.3,50.0,96,82,63,0.00,40.00,0,0,0,0.03
2014-7-16,72.0,61.3,49.0,53.0,49.9,47.0,95,69,44,0.00,40.00,3,0,9,0.01
2014-7-17,77.0,64.5,52.0,58.0,52.6,50.0,93,69,42,0.00,40.00,5,1,116,0.00
2014-7-18,79.0,68.4,56.0,61.0,56.9,52.0,86,68,48,0.00,40.00,9,3,161,0.00
2014-7-19,79.0,70.0,61.0,63.0,59.3,54.0,87,70,51,0.00,40.00,14,4,41,0.00
2014-7-20,79.0,68.2,61.0,66.0,60.7,57.0,88,78,62,0.00,40.00,12,6,27,0.00
2014-7-21,85.0,74.2,64.0,70.0,65.4,60.0,89,75,58,0.00,40.00,12,6,33,0.00
2014-7-22,90.0,78.9,71.0,78.0,70.5,63.0,89,76,59,0.00,40.00,21,11,51,0.00
2014-7-23,74.0,66.8,57.0,63.0,55.8,50.0,96,70,51,0.00,40.00,17,6,46,0.00
2014-7-24,77.0,65.6,51.0,58.0,51.9,48.0,93,64,46,0.00,40.00,7,3,53,0.00
2014-7-25,73.0,64.5,56.0,63.0,57.2,47.0,89,78,57,0.00,40.00,8,1,51,0.06
2014-7-26,80.0,69.3,61.0,71.0,64.9,60.0,96,84,72,0.00,40.00,10,4,111,0.01
2014-7-27,76.0,68.6,62.0,68.0,62.9,56.0,100,83,58,0.00,40.00,18,8,48,0.24
2014-7-28,73.0,62.4,52.0,57.0,53.1,49.0,91,74,54,0.00,40.00,12,7,24,0.02
2014-7-29,77.0,64.6,57.0,59.0,56.4,55.0,95,77,47,0.00,40.00,12,5,49,0.28
2014-7-30,75.0,64.1,55.0,61.0,57.1,53.0,100,81,46,0.00,40.00,12,3,24,0.28
2014-7-31,80.0,66.1,58.0,63.0,55.5,56.0,97,77,51,0.00,40.00,16,6,137,0.00
2014-8-1,81.0,68.2,60.0,65.0,60.2,55.0,94,77,55,0.00,40.00,13,6,28,0.00
2014-8-2,85.0,69.6,57.0,63.0,59.1,55.0,94,72,42,0.00,40.00,4,2,117,0.00
2014-8-3,82.0,71.7,63.0,68.0,64.6,60.0,93,79,58,0.00,40.00,10,4,101,0.01
2014-8-4,80.0,67.9,62.0,71.0,63.8,60.0,98,87,71,0.00,40.00,10,4,35,0.02
2014-8-5,78.0,70.2,59.0,63.0,61.3,54.0,100,75,60,0.00,40.00,11,6,190,0.01
2014-8-6,82.0,69.3,53.0,60.0,56.1,51.0,94,66,40,0.00,40.00,5,2,94,0.00
2014-8-7,80.0,74.8,65.0,58.0,55.6,54.0,69,52,43,0.00,40.00,15,9,30,0.00
2014-8-8,81.0,71.9,62.0,61.0,56.5,52.0,78,60,40,0.00,40.00,9,4,34,0.00
2014-8-9,79.0,68.4,63.0,63.0,56.3,50.0,84,66,38,0.00,40.00,5,0,15,0.00
2014-8-10,82.0,70.8,63.0,63.0,58.9,54.0,87,67,50,0.00,40.00,7,2,112,0.00
2014-8-11,81.0,69.3,61.0,66.0,62.5,58.0,96,80,57,0.00,40.00,17,4,196,0.41
2014-8-12,72.0,63.6,56.0,62.0,56.4,50.0,94,79,57,0.00,40.00,19,9,53,0.49
2014-8-13,79.0,65.2,56.0,62.0,56.4,50.0,93,75,51,0.00,40.00,8,4,111,0.03
2014-8-14,73.0,65.0,51.0,55.0,49.7,46.0,97,61,41,0.00,40.00,11,3,114,0.00
2014-8-15,79.0,66.3,50.0,63.0,56.0,48.0,93,72,53,0.00,40.00,13,5,33,0.00
2014-8-16,84.0,67.3,59.0,69.0,62.4,58.0,98,86,58,0.00,40.00,19,7,46,0.89
2014-8-17,75.0,66.4,59.0,62.0,59.8,55.0,96,81,63,0.00,40.00,12,6,42,0.89
2014-8-18,76.0,60.0,57.0,66.0,58.4,56.0,98,95,72,0.00,40.00,16,5,87,0.78
2014-8-19,79.0,68.6,63.0,68.0,64.4,62.0,99,88,61,0.00,40.00,16,6,38,1.35
2014-8-20,83.0,71.4,62.0,69.0,64.9,62.0,99,82,57,0.00,40.00,10,4,39,0.00
2014-8-21,77.0,69.5,64.0,71.0,66.8,62.0,98,91,80,0.00,40.00,11,4,94,0.53
2014-8-22,90.0,77.0,69.0,75.0,72.1,69.0,100,86,61,0.00,40.00,9,4,68,0.45
2014-8-23,78.0,71.9,69.0,74.0,69.3,67.0,99,90,84,0.00,40.00,3,0,15,0.00
2014-8-24,81.0,73.7,69.0,72.0,69.0,66.0,95,86,75,0.00,40.00,24,6,42,0.00
2014-8-25,81.0,73.5,68.0,76.0,70.3,67.0,99,90,70,0.00,40.00,11,6,73,0.28
2014-8-26,76.0,68.8,61.0,67.0,60.6,56.0,99,77,55,0.00,40.00,14,7,40,0.02
2014-8-27,76.0,67.4,60.0,63.0,59.5,57.0,92,77,55,0.00,40.00,9,6,117,0.00
2014-8-28,75.0,65.3,57.0,61.0,57.2,52.0,97,76,60,0.00,40.00,16,8,39,0.00
2014-8-29,85.0,74.2,63.0,72.0,67.2,57.0,93,79,65,0.00,40.00,17,11,43,0.00
2014-8-30,77.0,71.0,66.0,70.0,67.3,65.0,98,87,74,0.00,40.00,13,8,34,0.31
2014-8-31,83.0,71.2,61.0,70.0,66.0,61.0,100,86,57,0.00,40.00,10,5,20,0.03
2014-9-1,77.0,70.4,62.0,69.0,66.3,61.0,98,87,68,0.00,40.00,25,11,64,0.07
2014-9-2,78.0,66.9,58.0,64.0,60.5,56.0,100,83,49,0.00,40.00,9,4,37,0.04
2014-9-3,81.0,69.8,58.0,64.0,60.0,57.0,95,74,48,0.00,40.00,14,7,42,0.00
2014-9-4,84.0,75.1,68.0,71.0,67.2,64.0,92,77,61,0.00,40.00,21,12,48,0.01
2014-9-5,78.0,70.9,60.0,74.0,63.9,54.0,93,79,59,0.00,40.00,23,12,48,0.43
2014-9-6,74.0,61.5,51.0,55.0,52.0,50.0,98,73,46,0.00,40.00,22,7,49,0.43
2014-9-7,80.0,64.8,51.0,59.0,53.8,50.0,97,72,38,0.00,40.00,12,6,69,0.00
2014-9-8,75.0,65.9,57.0,58.0,54.4,51.0,83,68,46,0.00,40.00,12,7,53,0.00
2014-9-9,82.0,69.3,59.0,65.0,60.1,55.0,90,74,51,0.00,40.00,11,7,28,0.00
2014-9-10,75.0,64.5,48.0,70.0,61.0,42.0,96,88,80,0.00,40.00,19,12,34,0.31
2014-9-11,52.0,47.3,44.0,45.0,41.1,38.0,94,79,69,0.00,40.00,15,9,29,0.02
2014-9-12,47.0,44.1,41.0,43.0,41.5,40.0,97,91,79,0.00,40.00,8,5,14,0.20
2014-9-13,59.0,47.2,39.0,42.0,38.9,36.0,99,75,44,0.00,40.00,9,5,19,0.10
2014-9-14,65.0,53.6,44.0,50.0,44.4,40.0,91,73,49,0.00,40.00,13,6,30,0.00
2014-9-15,58.0,52.6,46.0,53.0,49.5,46.0,99,90,72,0.00,40.00,7,3,27,0.16
2014-9-16,65.0,51.7,39.0,48.0,43.0,38.0,98,76,44,0.00,40.00,8,3,13,0.02
2014-9-17,70.0,55.6,42.0,53.0,46.4,41.0,96,75,45,0.00,40.00,8,4,16,0.00
2014-9-18,67.0,53.5,47.0,55.0,49.5,45.0,98,87,65,0.00,40.00,10,6,21,0.00
2014-9-19,73.0,61.4,49.0,57.0,51.2,48.0,100,73,43,0.00,40.00,16,9,30,0.00
2014-9-20,74.0,65.8,59.0,65.0,60.4,52.0,97,82,69,0.00,40.00,14,8,37,0.24
2014-9-21,60.0,55.8,44.0,57.0,49.3,41.0,97,80,54,0.00,40.00,17,10,55,0.17
2014-9-22,68.0,53.2,39.0,53.0,44.6,38.0,99,77,48,0.00,40.00,9,4,17,0.00
2014-9-23,76.0,60.5,49.0,55.0,50.8,47.0,96,74,41,0.00,40.00,6,4,14,0.00
2014-9-24,73.0,61.8,51.0,55.0,51.4,48.0,90,70,46,0.00,40.00,8,5,21,0.00
2014-9-25,78.0,64.7,54.0,54.0,52.1,50.0,93,66,38,0.00,40.00,7,4,113,0.00
2014-9-26,78.0,65.1,53.0,56.0,53.1,51.0,95,69,40,0.00,40.00,11,4,27,0.00
2014-9-27,81.0,67.4,57.0,60.0,54.6,51.0,84,65,43,0.00,40.00,10,5,33,0.00
2014-9-28,82.0,66.5,53.0,60.0,55.2,50.0,95,70,44,0.00,40.00,5,2,170,0.00
2014-9-29,79.0,59.4,48.0,62.0,54.2,45.0,97,85,49,0.00,40.00,16,7,29,0.10
2014-9-30,53.0,46.9,43.0,46.0,42.1,40.0,95,84,71,0.00,40.00,13,6,22,0.01
2014-10-1,68.0,56.8,47.0,54.0,50.0,46.0,96,79,56,0.00,40.00,14,8,22,0.00
2014-10-2,67.0,63.0,59.0,64.0,58.8,54.0,93,86,80,0.00,40.00,14,6,36,0.00
2014-10-3,65.0,52.1,42.0,62.0,47.7,32.0,97,85,65,0.00,40.00,22,14,51,0.74
2014-10-4,45.0,41.1,38.0,40.0,35.4,31.0,93,79,66,0.00,40.00,15,12,33,0.03
2014-10-5,51.0,42.7,34.0,39.0,33.1,30.0,92,71,44,0.00,40.00,15,8,32,0.01
2014-10-6,57.0,48.2,43.0,42.0,36.0,31.0,91,65,39,0.00,40.00,16,6,126,0.00
2014-10-7,65.0,51.6,43.0,44.0,39.7,36.0,88,66,37,0.00,40.00,15,8,38,0.00
2014-10-8,61.0,48.7,38.0,40.0,35.3,32.0,94,64,36,0.00,40.00,20,8,41,0.00
2014-10-9,57.0,44.6,33.0,36.0,32.6,30.0,91,66,35,0.00,40.00,9,3,21,0.00
2014-10-10,58.0,46.8,32.0,40.0,31.6,27.0,96,60,30,0.00,40.00,7,2,167,0.00
2014-10-11,59.0,44.3,31.0,39.0,33.9,30.0,97,69,37,0.00,40.00,6,1,20,0.00
2014-10-12,62.0,49.5,39.0,48.0,38.5,32.0,93,69,40,0.00,40.00,11,5,169,0.03
2014-10-13,62.0,55.8,51.0,59.0,53.6,48.0,99,93,78,0.00,40.00,16,6,54,1.64
2014-10-14,62.0,55.3,49.0,60.0,54.2,47.0,99,96,92,0.00,40.00,22,10,55,1.23
2014-10-15,53.0,49.8,48.0,52.0,48.6,46.0,99,96,91,0.00,40.00,16,11,36,0.05
2014-10-16,61.0,51.9,47.0,50.0,48.9,47.0,100,90,65,0.00,40.00,7,4,25,0.01
2014-10-17,57.0,50.4,46.0,51.0,46.7,40.0,98,88,76,0.00,40.00,17,9,53,0.01
2014-10-18,50.0,43.6,34.0,41.0,36.0,31.0,93,75,48,0.00,40.00,13,8,32,0.04
2014-10-19,56.0,44.6,33.0,44.0,37.9,31.0,96,79,58,0.00,40.00,17,8,44,0.01
2014-10-20,56.0,48.9,42.0,46.0,43.1,40.0,96,81,67,0.00,40.00,11,6,29,0.00
2014-10-21,50.0,44.4,36.0,44.0,37.7,34.0,94,77,59,0.00,40.00,14,7,27,0.00
2014-10-22,58.0,42.4,29.0,42.0,35.5,29.0,98,80,46,0.00,40.00,9,4,22,0.00
2014-10-23,54.0,45.4,35.0,50.0,41.1,32.0,100,86,63,0.00,40.00,12,6,39,0.21
2014-10-24,59.0,51.4,47.0,51.0,49.2,47.0,100,93,75,0.00,40.00,8,5,17,0.02
2014-10-25,66.0,55.7,45.0,54.0,40.2,26.0,100,63,23,0.00,40.00,22,9,64,0.00
2014-10-26,63.0,49.3,35.0,37.0,30.4,26.0,74,51,24,0.00,40.00,10,4,15,0.00
2014-10-27,73.0,61.3,50.0,59.0,50.4,37.0,76,67,56,0.00,40.00,14,9,33,0.10
2014-10-28,65.0,51.9,43.0,57.0,41.2,33.0,88,67,46,0.00,40.00,22,13,36,0.10
2014-10-29,46.0,42.1,33.0,37.0,32.4,30.0,90,69,58,0.00,40.00,17,9,32,0.00
2014-10-30,51.0,40.9,32.0,38.0,33.7,30.0,93,77,53,0.00,40.00,14,6,33,0.00
2014-10-31,43.0,35.9,33.0,35.0,23.5,17.0,91,62,40,0.00,40.00,31,18,59,0.00
2014-11-1,44.0,34.0,26.0,26.0,22.4,19.0,85,63,43,0.00,40.00,12,5,21,0.00
2014-11-2,52.0,39.2,28.0,31.0,26.0,22.0,90,63,33,0.00,40.00,14,10,31,0.00
2014-11-3,58.0,47.3,37.0,50.0,33.3,25.0,96,59,46,0.00,40.00,14,7,21,0.10
2014-11-4,57.0,48.2,39.0,56.0,42.2,32.0,99,81,50,0.00,40.00,17,10,32,0.20
2014-11-5,48.0,42.4,32.0,44.0,34.2,29.0,96,74,51,0.00,40.00,11,6,18,0.02
2014-11-6,45.0,38.0,33.0,44.0,33.1,25.0,100,83,65,0.00,40.00,23,14,41,0.09
2014-11-7,43.0,36.6,28.0,33.0,27.4,25.0,93,71,50,0.00,40.00,12,6,18,0.01
2014-11-8,43.0,37.9,31.0,37.0,29.1,23.0,94,71,48,0.00,40.00,20,11,53,0.05
2014-11-9,46.0,37.7,31.0,33.0,30.9,26.0,99,77,56,0.00,40.00,15,7,29,0.02
2014-11-10,52.0,42.6,32.0,44.0,38.2,29.0,98,85,72,0.00,40.00,20,10,51,0.01
2014-11-11,38.0,32.9,26.0,37.0,29.1,18.0,100,87,69,0.00,40.00,19,13,50,0.03
2014-11-12,27.0,22.8,20.0,18.0,15.6,15.0,83,72,62,0.00,40.00,18,12,41,0.03
2014-11-13,27.0,23.4,20.0,18.0,15.4,13.0,83,71,56,0.00,40.00,15,10,22,0.00
2014-11-14,25.0,21.2,15.0,18.0,13.8,10.0,90,74,55,0.00,40.00,10,6,16,0.00
2014-11-15,25.0,18.8,12.0,19.0,12.8,9.0,92,77,50,0.00,40.00,8,3,14,0.02
2014-11-16,27.0,21.8,15.0,23.0,18.2,5.0,92,86,73,0.00,40.00,10,6,19,0.02
2014-11-17,16.0,11.0,5.0,9.0,4.4,1.0,84,74,58,0.00,40.00,18,10,31,0.00
2014-11-18,19.0,13.2,8.0,8.0,4.0,2.0,77,66,53,0.00,40.00,17,12,34,0.00
2014-11-19,24.0,19.1,15.0,17.0,11.3,6.0,89,71,60,0.00,40.00,23,12,56,0.00
2014-11-20,21.0,15.7,8.0,12.0,4.9,-1.0,82,63,39,0.00,40.00,20,11,40,0.00
2014-11-21,30.0,17.7,4.0,11.0,2.9,-3.0,76,55,31,0.00,40.00,14,7,24,0.00
2014-11-22,47.0,36.1,30.0,46.0,33.3,13.0,100,90,48,0.00,40.00,13,8,28,0.00
2014-11-23,48.0,47.4,46.0,48.0,47.2,44.0,100,100,97,0.00,40.00,12,9,31,0.47
2014-11-24,44.0,34.5,23.0,44.0,34.5,23.0,100,100,98,0.00,40.00,19,11,32,0.40
2014-11-25,24.0,20.6,15.0,24.0,19.6,13.0,98,96,92,0.00,40.00,16,10,25,0.01
2014-11-26,24.0,18.1,14.0,23.0,16.5,12.0,96,93,91,0.00,40.00,6,4,20,0.00
2014-11-27,21.0,14.5,2.0,20.0,12.1,-2.0,96,90,83,0.00,40.00,13,6,28,0.00
2014-11-28,30.0,18.4,8.0,29.0,16.1,5.0,97,90,86,0.00,40.00,12,7,30,0.01
2014-11-29,42.0,35.3,29.0,40.0,33.6,29.0,100,93,78,0.00,40.00,12,9,28,0.01
2014-11-30,39.0,29.2,14.0,39.0,25.1,2.0,100,85,59,0.00,40.00,17,9,31,0.00
2014-12-1,14.0,8.8,5.0,3.0,-2.5,-6.0,78,59,45,0.00,40.00,17,9,29,0.00
2014-12-2,31.0,23.3,10.0,22.0,15.8,2.0,85,73,58,0.00,40.00,14,7,23,0.00
2014-12-3,31.0,23.1,16.0,20.0,14.0,9.0,93,69,42,0.00,40.00,15,7,43,0.00
2014-12-4,30.0,22.2,14.0,24.0,13.9,6.0,86,71,46,0.00,40.00,9,5,14,0.00
2014-12-5,36.0,32.2,27.0,32.0,28.2,24.0,100,85,72,0.00,40.00,7,4,13,0.00
2014-12-6,33.0,26.5,19.0,28.0,21.8,15.0,100,82,59,0.00,40.00,15,8,32,0.00
2014-12-7,37.0,28.3,16.0,26.0,20.8,14.0,94,75,52,0.00,40.00,15,8,29,0.00
2014-12-8,33.0,32.3,30.0,33.0,31.2,24.0,100,96,77,0.00,40.00,14,7,30,0.18
2014-12-9,34.0,30.6,25.0,34.0,27.8,21.0,100,89,80,0.00,40.00,13,9,31,0.04
2014-12-10,25.0,22.4,21.0,22.0,19.0,19.0,91,83,82,0.00,40.00,10,6,17,0.00
2014-12-11,29.0,21.4,18.0,22.0,19.3,17.0,97,91,76,0.00,40.00,10,6,26,0.00
2014-12-12,34.0,29.9,23.0,33.0,29.3,22.0,100,98,93,0.00,40.00,14,10,34,0.00
2014-12-13,40.0,36.7,33.0,40.0,36.6,32.0,100,100,98,0.00,40.00,10,5,21,0.00
2014-12-14,44.0,41.8,39.0,44.0,41.8,39.0,100,99,100,0.00,40.00,9,6,22,0.00
2014-12-15,46.0,43.4,41.0,46.0,43.4,41.0,100,100,100,0.00,40.00,12,7,23,0.03
2014-12-16,41.0,35.3,27.0,41.0,34.1,23.0,100,95,81,0.00,40.00,15,8,26,0.05
2014-12-17,27.0,22.8,18.0,23.0,17.7,14.0,91,81,73,0.00,40.00,14,11,30,0.01
2014-12-18,27.0,24.1,20.0,24.0,20.8,16.0,96,87,83,0.00,40.00,8,5,16,0.00
2014-12-19,28.0,22.4,16.0,24.0,19.2,15.0,99,88,68,0.00,40.00,5,2,11,0.00
2014-12-20,20.0,19.4,19.0,19.0,18.4,18.0,97,96,95,0.00,40.00,0,0,2,0.00
2014-12-29,22.0,16.4,8.0,8.0,6.3,3.0,80,64,54,0.00,40.00,11,8,26,0.00
2014-12-30,12.0,6.3,2.0,3.0,-4.6,-10.0,80,62,36,0.00,40.00,14,9,27,0.00
2014-12-31,18.0,8.3,-1.0,6.0,-3.2,-8.0,75,60,41,0.00,40.00,21,13,41,0.00
2015-1-1,28.0,19.6,13.0,17.0,11.0,5.0,87,69,57,0.00,40.00,17,10,36,0.00
2015-1-2,31.0,22.3,11.0,20.0,14.4,6.0,89,73,42,0.00,40.00,9,4,24,0.00